Regional Weather Roundup
Issued by NWS Midland/Odessa, TX

Home | Current Version | Previous Version | Text Only | Print | Product List | Glossary On
Versions: 1 2 3 4 5 6 7 8 9 10 11 12 13 14 15 16 17 18 19 20 21 22 23 24 25 26 27 28 29 30 31 32 33 34 35 36 37 38 39 40 41 42 43 44 45 46 47 48 49 50
000
ASUS44 KMAF 241210
RWRMAF
MIDLAND AREA WEATHER ROUNDUP
NATIONAL WEATHER SERVICE MIDLAND TX
600 AM CST MON NOV 24 2014

...IN SOUTHWEST TEXAS AND SOUTHEAST NEW MEXICO...

CITY           SKY/WX    TMP DP  RH WIND       PRES   REMARKS
ALPINE         CLEAR     28  24  84 W8        30.13R WCI  20
ANDREWS        FAIR      33  29  84 W7        30.04S WCI  27
ARTESIA        NOT AVBL
BIG SPRING     CLEAR     33  30  88 CALM      30.07S
CARLSBAD       CLEAR     35  12  38 W3        30.06R
DRYDEN           N/A     40  28  62 N5        30.05R WCI  37
FORT STOCKTON  CLEAR     37  28  70 SW9       30.06S WCI  30
GUAD PASS      MOCLDY    33   9  36 VRB7      30.09R WCI  27
HOBBS          CLEAR     28  28 100 CALM      30.04S
MARFA          CLEAR     25  18  74 E5        30.07F WCI  19
MIDLAND AIRPK  CLEAR     37  31  77 W7        30.05R WCI  32
MIDLAND INTL   CLEAR     37  30  75 W12       30.04S WCI  29
ODESSA         CLEAR     36  28  73 NW8       30.05R WCI  30
PECOS          CLEAR     35  28  73 W5        30.07R WCI  31
PRESIDIO       FAIR      40  29  63 CALM      30.09R
SEMINOLE       CLEAR     32  29  90 CALM      30.05S
SNYDER         CLEAR     32  28  86 W5        30.05R WCI  27
WINK           CLEAR     33  26  75 N5        30.05R WCI  29
$$
...OTHER STATIONS IN TEXAS...

CITY           SKY/WX    TMP DP  RH WIND       PRES   REMARKS
ABILENE        CLEAR     39  30  70 CALM      30.03R
AMARILLO       MOCLDY    35  23  61 NW6       29.97S WCI  30
AUSTIN         CLEAR     50  36  58 NW12      29.97R
BROWNSVILLE    FOG       69  68  96 W5        29.83R VSB 1/4
CORPUS CHRISTI CLEAR     56  43  61 N21       29.92R
DALLAS FTW     CLEAR     44  34  67 W13       29.95R WCI  38
DEL RIO        CLEAR     47  36  65 NW7       30.05R
EL PASO        PTCLDY    41   2  19 N6        30.12S WCI  37
HOUSTON INT    CLEAR     51  40  65 N13G21    29.91R
LUBBOCK        PTCLDY    26  23  88 W6        30.02R WCI  19
SAN ANGELO     CLEAR     38  31  76 W7        30.03S WCI  33
SAN ANTONIO    CLEAR     51  35  54 N8        29.97R
WACO           CLEAR     38  36  92 SW7       29.98R WCI  33
WICHITA FALLS  NOT AVBL
$$
...OTHER LOCATIONS IN NEW MEXICO...

CITY           SKY/WX    TMP DP  RH WIND       PRES   REMARKS
ALAMAGORDO     PTCLDY    32   5  32 MISG      30.13S
ALBUQUERQUE    PTCLDY    30   9  41 VRB6      30.13R WCI  24
CANNON AFB     CLEAR     24  21  89 SW6       30.00R WCI  17
CLOVIS         CLEAR     25  21  86 W5        30.00S WCI  19
HOLLOMAN AFB   PTCLDY    28   6  39 N5        30.13R WCI  22
ROSWELL        CLEAR     37  11  34 W7        30.05R WCI  32
RUIDOSO        CLEAR     25   7  46 NW10      30.08R WCI  15
SANTA FE       CLEAR     15   4  61 W5        30.06S WCI   8
TRUTH OR CONSE PTCLDY    35  -2  20 W13       30.12F WCI  26
TUCUMCARI        N/A     27  23  85 W3        29.99S
$$


USA.gov is the U.S. government's official web portal to all federal, state and local government web resources and services.